Location: Medoc Mountain State Park
(36.2578°N, 77.8786°W)
Time: 04:41:27
(UTC-04:00)

Daily predictions for brighter satellites

Satellite Brightness Start Highest point End
(mag) Time Altitude Azimuth Time Altitude Azimuth Time Altitude Azimuth
NOSS 3-4 (A) 4.3 04:00:48 48° ENE 04:00:48 48° ENE 04:05:43 10° NE
NOSS 3-4 (C) 4.3 04:00:52 48° ENE 04:00:52 48° ENE 04:05:49 10° NE
Cosmos 2344 3.6 04:06:57 71° N 04:06:57 71° N 04:14:41 10° NNE
Cosmos 2227 Rocket 3.3 04:07:45 41° ENE 04:07:45 41° ENE 04:11:55 10° NE
CZ-2D R/B 4.1 04:06:13 10° N 04:07:50 21° N 04:07:50 21° N
FALCON 9 R/B 4.3 04:10:54 23° SE 04:12:28 24° SE 04:22:37 10° E
Cosmos 2219 Rocket 4.5 04:20:31 13° SE 04:20:31 13° SE 04:21:04 10° SE
Cosmos 2297 Rocket 3.2 04:15:57 40° ESE 04:15:57 40° ESE 04:21:10 10° NE
NOSS 0 Rocket 4.1 04:24:44 10° NNW 04:30:59 69° ENE 04:37:10 10° SSE
IRS-1C Rocket 4.4 04:30:25 10° NNE 04:35:36 64° E 04:35:36 64° E
Resurs 1-4 Rocket 3.9 04:32:21 10° N 04:34:08 20° NNW 04:34:08 20° NNW
Cosmos 1605 Rocket 3.9 04:31:45 10° N 04:37:56 84° E 04:39:11 60° SSE
BREEZE-M DEB (TANK) 3.9 04:41:55 53° NE 04:41:55 53° NE 04:44:06 10° NE
Cosmos 2082 3.6 04:46:49 77° NNW 04:46:49 77° NNW 04:52:07 10° NNE
PAYLOAD B 4.4 04:42:09 10° NNE 04:47:39 69° ESE 04:49:10 47° SSE
CZ-4C R/B 4.5 04:53:23 18° S 04:53:23 18° S 04:55:22 10° S
Cosmos 1025 Rocket 3.7 04:51:03 51° NE 04:51:03 51° NE 04:54:26 10° NNE
NOSS 3-2 (A) 3.9 04:43:42 10° NNW 04:51:22 89° ENE 04:59:30 10° SSE
Lacrosse 5 rocket 4.1 04:53:31 11° NNW 04:53:31 11° NNW 04:54:06 10° N
CZ-4B R/B 3.3 04:49:07 10° NNE 04:53:24 68° E 04:53:24 68° E
Cosmos 923 Rocket 4.1 04:48:34 10° NNW 04:54:42 66° S 04:59:16 10° SSE
Cosmos 2333 Rocket 2.0 04:50:29 10° NNW 04:56:12 81° WSW 05:01:51 10° SSE
Okean O Rocket 2.4 04:57:22 10° N 05:00:24 42° N 05:00:24 42° N
DELTA 2 R/B (1) 3.5 05:01:53 67° SSW 05:02:32 76° SSE 05:08:06 10° ENE
Okean 2 4.1 05:03:14 33° SSE 05:04:46 53° E 05:08:48 10° NNE
Meteor 1-19 Rocket 4.1 05:04:57 53° SSW 05:06:15 74° W 05:11:53 10° N
Cosmos 1606 Rocket 3.8 05:02:54 10° N 05:07:15 66° E 05:11:33 10° SSE
USA 215 3.7 05:03:14 10° SSE 05:08:44 40° SW 05:08:44 40° SW
Delta 2 Rocket 3.2 05:13:34 68° ESE 05:13:34 68° ESE 05:16:45 10° E
Cosmos 1898 Rocket 3.9 05:09:18 18° S 05:13:14 62° ESE 05:18:29 10° NNE
Cosmos 2100 Rocket 4.2 05:09:41 10° N 05:15:56 72° E 05:22:12 10° SSE
CZ-2C R/B 3.6 05:17:20 61° W 05:17:20 61° W 05:21:47 10° NNW
Lacrosse 5 2.6 05:18:00 36° NW 05:18:14 36° NW 05:22:55 10° NNE
Cosmos 1726 Rocket 3.7 05:13:55 10° N 05:18:19 74° E 05:22:39 10° SSE
CZ-4B R/B 3.1 05:13:10 10° N 05:18:33 66° WNW 05:20:48 36° SW
Cosmos 2237 Rocket 2.1 05:15:27 10° NNW 05:21:00 60° WSW 05:26:30 10° S
Cosmos 1666 2.8 05:17:10 10° N 05:21:02 74° E 05:24:51 10° SSE
Meteor 2-4 Rocket 3.7 05:17:27 20° SSW 05:21:34 76° W 05:27:30 10° N
Tiangong 1 2.7 05:23:36 26° N 05:23:36 26° N 05:25:47 10° NE
Meteor 1-23 Rocket 4.1 05:21:05 16° SSW 05:25:40 77° W 05:31:23 10° N
Cosmos 1892 Rocket 3.4 05:24:41 31° SSW 05:26:45 75° W 05:31:15 10° N
ATLAS 5 CENTAUR R/B 2.3 05:21:06 10° NW 05:27:14 72° WSW 05:33:45 10° SSE
Cosmos 1937 Rocket 4.0 05:22:14 10° S 05:27:20 59° ESE 05:32:30 10° NNE
CENTAUR R/B 4.2 05:20:04 10° NNW 05:27:29 44° NE 05:35:19 10° ESE
Cosmos 292 Rocket 3.8 05:23:44 10° NNW 05:28:37 80° ENE 05:33:27 10° SSE
ADEOS Rocket 3.1 05:22:04 10° N 05:29:12 78° WNW 05:35:33 10° SSW
NOSS 3-2 (C) 4.0 05:21:42 10° NW 05:29:17 67° WSW 05:37:21 10° SSE
Hubble Space Telescope 2.9 05:32:28 14° S 05:32:28 14° S 05:33:59 10° SSE
Cosmos 1980 4.0 05:29:23 10° NW 05:34:41 41° WSW 05:39:57 10° S
ADEOS II 2.1 05:29:29 10° NNE 05:34:47 87° ESE 05:40:02 10° SSW
PSLV R/B 3.4 05:32:18 10° N 05:36:38 72° WNW 05:39:59 16° SSW
NOSS 2-2 (C) 4.3 05:36:27 11° S 05:40:09 48° ESE 05:44:28 10° NE
ASTRO F (AKARI) 4.0 05:37:20 10° S 05:40:27 72° WSW 05:43:40 10° NNW
SL-16 R/B 2.2 05:34:58 10° NNW 05:40:42 83° ENE 05:46:22 10° SSE
NOSS 2-2 (E) 4.0 05:38:35 14° SSW 05:42:01 58° ESE 05:46:30 10° NE
Meteor 2-9 Rocket 4.2 05:38:19 10° NNW 05:43:56 69° W 05:49:40 10° S
Cosmos 1000 Rocket 4.5 05:38:47 10° SSW 05:45:04 68° W 05:51:23 10° N
RESURS DK-1 3.7 05:46:00 23° WNW 05:46:00 23° WNW 05:49:13 10° N
Cosmos 2112 Rocket 4.3 05:42:12 10° NNW 05:47:07 40° WSW 05:51:59 10° S
Meteor PRIRODA 3.5 05:44:04 10° N 05:47:49 78° WNW 05:51:30 10° SSW
OAO 2 Rocket 4.2 05:45:42 20° SW 05:49:00 44° SSE 05:54:03 10° E
Cosmos 2228 3.0 05:45:40 10° N 05:50:05 89° NE 05:54:27 10° S
Cosmos 2227 Rocket 3.4 05:49:36 21° WNW 05:50:47 22° WNW 05:55:10 10° N
OPS 6432 4.2 05:49:35 25° SW 05:51:30 75° WNW 05:54:37 10° NNE
Cosmos 2016 Rocket 4.0 05:45:15 10° N 05:51:37 89° W 05:57:53 10° S
Cosmos 1680 Rocket 4.2 05:47:06 10° NW 05:51:41 31° W 05:56:13 10° SSW
Cosmos 1346 Rocket 3.6 05:51:14 29° W 05:51:41 29° WNW 05:55:13 10° NNW
USA 129 2.8 05:52:59 10° SSE 05:54:55 41° ENE 05:56:43 10° N
Cosmos 2173 Rocket 4.0 05:51:17 10° NNW 05:57:15 57° W 06:03:13 10° SSW
Cosmos 2297 Rocket 3.2 05:57:49 20° W 06:00:03 26° WNW 06:04:44 10° N
OTV 4 1.3 06:01:46 26° SW 06:02:20 29° SSW 06:04:45 10° SE
Cosmos 967 Rocket 4.5 05:58:25 10° SSW 06:04:52 84° WNW 06:11:20 10° NNE
Okean-O 3.0 06:00:46 10° N 06:04:58 43° WNW 06:09:10 10° SW
Cosmos 1459 Rocket 4.2 05:59:29 10° NNW 06:05:33 48° W 06:11:32 10° SSW
Cosmos 2123 Rocket 3.9 05:59:42 10° S 06:05:52 85° W 06:12:05 10° N
Cosmos 2058 Rocket 3.6 06:05:06 10° NNW 06:09:06 36° W 06:13:04 10° SSW
SL-24 R/B 4.2 06:10:34 10° NNE 06:14:51 71° ESE 06:18:38 10° S
CZ-4B R/B 3.8 06:11:53 10° N 06:15:44 59° WNW 06:19:24 10° SSW
Thor Agena Rocket 4.4 06:13:26 10° SSW 06:17:59 29° W 06:22:34 10° NW
COSMO-SKYMED 1 3.3 06:15:20 10° SSE 06:19:35 59° ENE 06:23:52 10° N
Aureole 2 Rocket 2.5 06:16:55 10° NNW 06:20:10 45° WSW 06:23:08 10° S
Cosmos 1603 4.0 06:22:16 10° NNW 06:28:00 76° ENE 06:33:41 10° SSE
Cosmos 990 Rocket 4.3 06:25:52 10° SW 06:30:54 46° WNW 06:35:58 10° N
SeaSat 1 4.1 06:27:09 10° SE 06:31:39 37° ENE 06:36:11 10° N
Meteor 1-31 Rocket 3.5 06:29:47 10° N 06:33:18 32° WNW 06:36:48 10° SW
Ariane Rocket 3.1 06:29:47 10° NNE 06:34:55 88° WNW 06:40:01 10° SSW
Intercosmos 25 Rocket 3.7 06:32:39 10° N 06:36:21 89° E 06:41:59 10° S
Cosmos 2263 Rocket 3.7 06:32:32 10° S 06:37:42 41° ESE 06:42:52 10° NE
Cosmos 1626 Rocket 4.3 06:35:14 10° SW 06:39:09 31° WNW 06:43:03 10° NNW
Cosmos 2098 Rocket 4.0 06:36:02 10° NNW 06:39:37 29° W 06:43:58 10° SSW
